Overview Statistics Trail Chart Weather Telemetry Raw packets
 

This is the latest recevied weather packets stored in our database for station/object JF7BTK-10. If no packets are shown the sender has not sent any weather packets the latest 10 day(s).

<< 6 7 8 9 10 11 12 >>
Time Temp. Humidity Pressure Rain* Wind** Luminosity Snow
1788580251 23.33° C 64% 1010.2 hPa 0 mm - - -
1788579787 23.33° C 64% 1010.1 hPa 0 mm - - -
1788579651 22.78° C 64% 1010.1 hPa 0 mm - - -
1788579350 23.33° C 64% 1010 hPa 0 mm - - -
1788579051 23.33° C 64% 1010 hPa 0 mm - - -
1788578888 23.33° C 63% 1010.1 hPa 0 mm - - -
1788578751 23.33° C 62% 1010 hPa 0 mm - - -
1788578014 23.33° C 61% 1009.9 hPa 0 mm - - -
1788577852 23.33° C 60% 1010 hPa 0 mm - - -
1788577251 23.89° C 59% 1009.9 hPa 0 mm - - -
1788577087 24.44° C 61% 1009.8 hPa 0 mm - - -
1788576187 22.78° C 64% 1010 hPa 0 mm - - -
1788575288 22.78° C 64% 1010.1 hPa 0 mm - - -
1788574551 22.22° C 63% 1010.1 hPa 0 mm - - -
1788574387 22.22° C 63% 1010.1 hPa 0 mm - - -
1788574251 22.78° C 64% 1010.2 hPa 0 mm - - -
1788573951 22.78° C 63% 1010.2 hPa 0 mm - - -
1788573487 22.22° C 63% 1010.2 hPa 0 mm - - -
1788572589 22.22° C 70% 1010.1 hPa 0 mm - - -
1788572458 22.22° C 70% 1010.2 hPa 0 mm - - -
1788571688 21.67° C 70% 1010.4 hPa 0 mm - - -
1788570952 21.67° C 70% 1010.4 hPa 0 mm - - -
1788570788 21.67° C 70% 1010.5 hPa 0 mm - - -
1788570651 22.22° C 69% 1010.5 hPa 0 mm - - -
1788570352 22.22° C 68% 1010.4 hPa 0 mm - - -

* Rain latest hour (hover to see other rain measurements)
** Current wind speed in m/s (hover to see current wind gust speed)